Weather History for Wharton, TX

Change the Weather History Date:

Monday, July 8, 2013

  Actual Average (KPSX) Record (KPSX)
Temperature  
Mean Temperature 81 °F -  
Max Temperature 91 °F 89 °F 97 °F (1947)
Min Temperature 71 °F 76 °F 71 °F (1983)
Cooling Degree Days 16    
Growing Degree Days 31 (Base 50)    
Moisture  
Dew Point 73 °F    
Average Humidity 83    
Maximum Humidity 96    
Minimum Humidity 52    
Precipitation  
Precipitation 0.79 in - - ()
Sea Level Pressure  
Sea Level Pressure 30.08 in    
Wind  
Wind Speed 6 mph (SE)    
Max Wind Speed 17 mph    
Max Gust Speed 17 mph    
Visibility 9 miles    
Events Rain    
Averages and records for this station are not official NWS values.
T = Trace of Precipitation, MM = Missing Value Source: NWS Daily Summary

Daily Weather History Graph

Daily Weather History Graph

Search for Another Location

Airport:

Trip Planner

Search our weather history database for the weather conditions in past years. The results will help you decide how hot, cold, wet, or windy it might be!

Date:

Astronomy

Jul. 08, 2013 Rise Set
Actual Time 6:32 AM CDT 8:27 PM CDT
Civil Twilight 6:05 AM CDT 8:54 PM CDT
Nautical Twilight 5:32 AM CDT 9:26 PM CDT
Astronomical Twilight 4:58 AM CDT 10:01 PM CDT
Moon 6:55 AM CDT (7/8) 8:39 PM CDT (7/8)
Length of Visible Light 14h 49m
Length of Day
13h 55m
New Moon, 0% of the Moon is Illuminated
Jul 8
New Moon
Jul 15
First Quarter
Jul 22
Full
Jul 29
Last Quarter
Aug 6
New

Hourly Weather History & Observations

Time (CDT) Temp. Heat Index Dew Point Humidity Pressure Visibility Wind Dir Wind Speed Gust Speed Precip Events Conditions
12:15 AM 76.1 °F - 73.6 °F 92% 30.02 in 10.0 mi ESE 4.6 mph - N/A   Clear
12:35 AM 75.7 °F - 73.6 °F 93% 30.02 in 10.0 mi ESE 4.6 mph - N/A   Clear
12:55 AM 75.7 °F - 73.6 °F 93% 30.02 in 10.0 mi SE 5.8 mph - N/A   Clear
1:15 AM 75.6 °F - 73.4 °F 93% 30.01 in 10.0 mi SE 4.6 mph - N/A   Scattered Clouds
1:35 AM 75.2 °F - 73.4 °F 94% 30.01 in 10.0 mi Calm Calm - N/A   Scattered Clouds
1:55 AM 75.2 °F - 73.4 °F 94% 30.01 in 10.0 mi Calm Calm - N/A   Clear
2:15 AM 74.7 °F - 72.7 °F 94% 30.01 in 10.0 mi SE 4.6 mph - N/A   Clear
2:35 AM 74.5 °F - 72.7 °F 94% 30.01 in 10.0 mi SE 3.5 mph - N/A   Clear
2:55 AM 74.3 °F - 72.7 °F 95% 30.01 in 10.0 mi SE 3.5 mph - N/A   Scattered Clouds
3:15 AM 74.7 °F - 73.0 °F 95% 30.02 in 10.0 mi SE 3.5 mph - N/A   Mostly Cloudy
3:35 AM 75.2 °F - 73.2 °F 94% 30.02 in 10.0 mi ESE 3.5 mph - N/A   Overcast
3:55 AM 75.4 °F - 72.9 °F 92% 30.02 in 10.0 mi ESE 4.6 mph - N/A   Overcast
4:15 AM 75.4 °F - 72.9 °F 92% 30.03 in 10.0 mi ESE 3.5 mph - N/A   Overcast
4:35 AM 75.7 °F - 73.0 °F 91% 30.03 in 10.0 mi SE 8.1 mph - N/A Rain Rain
4:55 AM 74.8 °F - 72.9 °F 94% 30.04 in 10.0 mi SE 3.5 mph - N/A   Light Drizzle
5:15 AM 75.4 °F - 73.4 °F 94% 30.04 in 10.0 mi SW 6.9 mph - N/A   Light Drizzle
5:55 AM 72.9 °F - 71.1 °F 94% 30.06 in 5.0 mi WSW 17.3 mph - 0.17 in Rain Heavy Rain
6:15 AM 72.5 °F - 70.9 °F 95% 30.07 in 2.5 mi WSW 11.5 mph - 0.23 in Rain Heavy Rain
6:35 AM 71.8 °F - 70.3 °F 95% 30.09 in 5.0 mi SW 9.2 mph - 0.31 in Rain Heavy Rain
6:55 AM 72.1 °F - 70.9 °F 96% 30.09 in 1.8 mi SSW 5.8 mph - 0.48 in Rain Heavy Rain
7:15 AM 72.3 °F - 71.1 °F 96% 30.08 in 2.0 mi NNW 5.8 mph - 0.12 in Rain Heavy Rain
7:35 AM 72.7 °F - 71.6 °F 96% 30.09 in 7.0 mi North 5.8 mph - 0.13 in   Light Drizzle
7:55 AM 73.4 °F - 72.3 °F 96% 30.10 in 10.0 mi NW 5.8 mph - 0.13 in   Mostly Cloudy
8:15 AM 74.1 °F - 72.9 °F 96% 30.11 in 10.0 mi WNW 5.8 mph - N/A   Mostly Cloudy
8:35 AM 74.7 °F - 73.2 °F 95% 30.11 in 10.0 mi WNW 10.4 mph - N/A   Overcast
8:55 AM 73.9 °F - 72.0 °F 93% 30.13 in 7.0 mi West 8.1 mph - 0.01 in Rain Light Rain
9:15 AM 73.9 °F - 72.1 °F 94% 30.13 in 10.0 mi West 6.9 mph - N/A   Overcast
9:35 AM 73.9 °F - 72.1 °F 94% 30.13 in 10.0 mi Calm Calm - N/A   Drizzle
9:55 AM 74.7 °F - 72.7 °F 94% 30.14 in 10.0 mi WNW 4.6 mph - N/A   Mostly Cloudy
10:15 AM 75.4 °F - 73.2 °F 93% 30.14 in 10.0 mi NW 4.6 mph - N/A   Scattered Clouds
10:35 AM 76.5 °F - 73.8 °F 91% 30.14 in 10.0 mi NNW 4.6 mph - N/A Rain Light Rain
10:55 AM 76.5 °F - 72.3 °F 87% 30.14 in 10.0 mi North 3.5 mph - N/A   Clear
11:15 AM 77.5 °F - 73.2 °F 86% 30.15 in 10.0 mi ENE 4.6 mph - N/A   Clear
11:35 AM 77.2 °F - 72.9 °F 86% 30.14 in 10.0 mi ENE 3.5 mph - N/A   Clear
11:55 AM 77.0 °F - 73.0 °F 88% 30.15 in 10.0 mi ENE 3.5 mph - N/A Rain Light Rain
12:15 PM 76.5 °F - 73.2 °F 90% 30.15 in 10.0 mi ENE 3.5 mph - N/A Rain Light Rain
12:35 PM 77.0 °F - 73.2 °F 88% 30.14 in 10.0 mi NNE 4.6 mph - N/A   Light Drizzle
12:55 PM 77.9 °F - 72.7 °F 84% 30.13 in 10.0 mi NNE 5.8 mph - N/A   Light Drizzle
1:15 PM 79.3 °F - 73.4 °F 82% 30.12 in 10.0 mi ENE 3.5 mph - N/A   Clear
1:35 PM 82.4 °F 88.2 °F 73.4 °F 74% 30.12 in 10.0 mi NE 4.6 mph - N/A   Clear
1:55 PM 82.9 °F 89.1 °F 73.4 °F 73% 30.11 in 10.0 mi ENE 4.6 mph - N/A   Clear
2:15 PM 83.1 °F 89.5 °F 73.6 °F 73% 30.11 in 10.0 mi ENE 6.9 mph - N/A   Clear
2:35 PM 83.7 °F 91.0 °F 74.5 °F 74% 30.09 in 10.0 mi East 5.8 mph - N/A   Clear
2:55 PM 84.7 °F 92.8 °F 74.8 °F 72% 30.08 in 10.0 mi SE 5.8 mph - N/A   Clear
3:15 PM 86.9 °F 95.4 °F 74.1 °F 66% 30.07 in 10.0 mi SE 8.1 mph - N/A   Clear
3:35 PM 88.9 °F 96.1 °F 72.5 °F 58% 30.07 in 10.0 mi SSE 9.2 mph - N/A   Clear
3:55 PM 90.5 °F 97.5 °F 71.6 °F 54% 30.07 in 10.0 mi SE 10.4 mph 16.1 mph N/A   Clear
4:15 PM 90.5 °F 96.5 °F 70.7 °F 52% 30.07 in 10.0 mi South 8.1 mph 16.1 mph N/A   Clear
4:35 PM 90.9 °F 97.8 °F 71.8 °F 53% 30.07 in 10.0 mi SSE 13.8 mph - N/A   Scattered Clouds
4:55 PM 90.3 °F 96.2 °F 70.3 °F 52% 30.06 in 10.0 mi South 8.1 mph - N/A   Clear
5:15 PM 91.2 °F 98.5 °F 71.8 °F 53% 30.05 in 10.0 mi South 11.5 mph 16.1 mph N/A   Scattered Clouds
5:35 PM 90.7 °F 97.4 °F 71.2 °F 53% 30.06 in 10.0 mi South 9.2 mph - N/A   Scattered Clouds
5:55 PM 90.5 °F 97.5 °F 72.0 °F 54% 30.06 in 10.0 mi South 13.8 mph 17.3 mph N/A   Clear
6:15 PM 89.6 °F 96.2 °F 71.6 °F 55% 30.06 in 10.0 mi South 10.4 mph - N/A   Clear
6:35 PM 88.7 °F 97.2 °F 73.8 °F 61% 30.06 in 10.0 mi SSE 8.1 mph - N/A   Scattered Clouds
6:55 PM 87.3 °F 95.3 °F 73.8 °F 64% 30.06 in 10.0 mi South 11.5 mph - N/A   Mostly Cloudy
7:15 PM 85.6 °F 93.0 °F 73.4 °F 67% 30.06 in 10.0 mi SSE 12.7 mph - N/A   Scattered Clouds
7:35 PM 84.4 °F 91.3 °F 73.6 °F 70% 30.07 in 10.0 mi SE 9.2 mph - N/A   Clear
7:55 PM 83.5 °F 90.0 °F 73.8 °F 72% 30.07 in 10.0 mi SSE 8.1 mph - N/A   Clear
8:15 PM 82.4 °F 88.7 °F 74.3 °F 76% 30.07 in 10.0 mi SSE 6.9 mph - N/A   Clear
8:35 PM 81.5 °F 87.4 °F 74.5 °F 79% 30.08 in 10.0 mi SSE 6.9 mph - N/A   Clear
8:55 PM 80.2 °F 85.2 °F 74.7 °F 83% 30.08 in 10.0 mi SE 5.8 mph - N/A   Clear
9:15 PM 79.0 °F - 74.7 °F 87% 30.09 in 10.0 mi SE 5.8 mph - N/A   Clear
9:35 PM 79.0 °F - 74.8 °F 87% 30.10 in 10.0 mi SE 6.9 mph - N/A   Clear
9:55 PM 78.8 °F - 75.2 °F 89% 30.11 in 10.0 mi SE 5.8 mph - N/A   Clear
10:15 PM 78.1 °F - 75.2 °F 91% 30.12 in 10.0 mi SSE 4.6 mph - N/A   Clear
10:35 PM 77.9 °F - 75.2 °F 91% 30.12 in 10.0 mi SE 3.5 mph - N/A   Clear
10:55 PM 77.7 °F - 75.2 °F 92% 30.13 in 10.0 mi ESE 3.5 mph - N/A   Clear
11:15 PM 77.5 °F - 75.2 °F 92% 30.13 in 10.0 mi Calm Calm - N/A   Clear
11:35 PM 77.0 °F - 74.8 °F 93% 30.12 in 10.0 mi Calm Calm - N/A   Clear
11:55 PM 76.8 °F - 75.0 °F 94% 30.12 in 10.0 mi Calm Calm - N/A   Clear